1486054800.28,57424,8.81,73094.0,-4.71,-6.27,-6.13,0,*55
1486054801.49,57425,8.81,73092.3,-4.71,-6.27,-6.05,0,*53
1486054802.7,57426,8.81,73096.5,-4.71,-6.27,-6.05,0,*50
1486054803.93,57427,8.81,73094.0,-4.69,-6.23,-6.09,0,*50
1486054805.14,57428,8.81,73086.5,-4.71,-6.27,-6.05,0,*5E
1486054806.35,57429,8.81,73086.3,-4.71,-6.27,-6.05,0,*5F
1486054807.56,57430,8.81,73084.0,-4.71,-6.27,-6.01,0,*53
1486054808.77,57431,8.88,73082.0,-4.69,-6.13,-5.97,0,*50
1486054809.98,57432,8.88,73080.0,-4.71,-6.19,-6.01,0,*5C
1486054811.2,57433,8.88,73084.5,-4.71,-6.19,-6.05,0,*59
1486054812.41,57434,8.81,73086.0,-4.71,-6.27,-6.05,0,*53
1486054813.62,57435,8.81,73088.5,-4.71,-6.19,-6.13,0,*58
1486054814.83,57436,8.81,73094.5,-4.71,-6.19,-6.01,0,*58
1486054816.02,57437,8.88,73094.0,-4.71,-6.13,-6.01,0,*53
1486054817.24,57438,8.81,73090.0,-4.71,-6.05,-5.93,0,*53
1486054818.45,57439,8.81,73088.5,-4.71,-6.05,-5.89,0,*59
1486054819.63,57440,8.81,73084.5,-4.71,-6.05,-6.01,0,*54
1486054820.85,57441,8.81,73090.5,-4.69,-6.01,-5.97,0,*54
1486054822.06,57442,8.81,73090.0,-4.71,-6.05,-5.93,0,*5E
1486054823.27,57443,8.88,73092.5,-4.71,-6.05,-5.93,0,*5F
1486054824.49,57444,8.81,73094.0,-4.71,-6.05,-5.93,0,*58
1486054825.7,57445,8.81,73092.3,-4.71,-6.05,-5.93,0,*59
1486054826.91,57446,8.81,73094.8,-4.69,-6.01,-5.97,0,*53
1486054828.13,57447,8.88,73098.8,-4.69,-6.01,-5.97,0,*52
1486054829.34,57448,8.81,73100.8,-4.69,-6.09,-5.97,0,*55
1486054830.56,57449,8.88,73100.0,-4.71,-6.05,-5.93,0,*55
1486054831.8,57450,8.81,73096.3,-4.69,-5.97,-5.85,0,*5B
1486054833.05,57451,8.81,73092.3,-4.69,-5.97,-5.89,0,*56
1486054834.27,57452,8.81,73094.3,-4.71,-6.01,-5.89,0,*50
1486054835.49,57453,8.81,73100.8,-4.71,-6.01,-5.89,0,*51
1486054836.73,57454,8.81,73096.0,-4.71,-5.93,-5.81,0,*56
1486054838.0,57455,8.81,73106.5,-4.69,-5.89,-5.85,0,*51
1486054839.22,57456,8.81,73106.5,-4.71,-6.01,-5.81,0,*5C
1486054840.47,57457,8.88,73110.0,-4.71,-5.93,-5.81,0,*55
1486054841.71,57458,8.81,73108.8,-4.69,-5.97,-5.77,0,*5E
1486054842.95,57459,8.81,73110.3,-4.69,-6.01,-5.85,0,*5E
1486054844.2,57460,8.81,73102.3,-4.69,-6.09,-5.89,0,*50
1486054845.42,57461,8.81,73102.3,-4.71,-6.19,-6.01,0,*5A
1486054846.63,57462,8.81,73098.5,-4.69,-6.13,-5.97,0,*56
1486054847.84,57463,8.88,73088.0,-4.71,-6.19,-6.05,0,*5C
1486054849.08,57464,8.81,73082.3,-4.69,-6.23,-6.09,0,*57
1486054850.32,57465,8.81,73082.3,-4.69,-6.23,-5.97,0,*52
1486054851.53,57466,8.81,73084.8,-4.69,-6.13,-5.97,0,*52
1486054852.8,57467,8.81,73096.0,-4.69,-6.23,-5.89,0,*5F
1486054854.04,57468,8.88,73102.5,-4.69,-6.23,-5.97,0,*5F
1486054855.28,57469,8.81,73098.8,-4.69,-6.13,-5.89,0,*52
1486054856.5,57470,8.81,73096.5,-4.69,-6.09,-5.97,0,*5E
1486054857.74,57471,8.81,73092.0,-4.69,-6.01,-5.89,0,*58
1486054859.01,57472,8.81,73090.3,-4.69,-5.89,-5.77,0,*59
1486054860.28,57473,8.81,73088.8,-4.69,-5.89,-5.85,0,*55
1486054861.55,57474,8.81,73082.3,-4.69,-5.89,-5.85,0,*52
1486054862.77,57475,8.81,73076.5,-4.71,-6.01,-5.89,0,*55
1486054864.04,57476,8.88,73094.5,-4.69,-5.89,-5.89,0,*5C
1486054865.31,57477,8.88,73094.5,-4.69,-5.89,-5.85,0,*51
1486054866.59,57478,8.81,73092.0,-4.69,-5.89,-5.85,0,*5E
1486054867.86,57479,8.81,73100.0,-4.69,-5.85,-5.85,0,*53
1486054869.13,57480,8.81,73100.0,-4.69,-5.89,-5.85,0,*59
1486054870.41,57481,8.81,73102.3,-4.69,-5.89,-5.85,0,*58
1486054871.68,57482,8.88,73106.8,-4.69,-5.85,-5.77,0,*5A
1486054872.95,57483,8.81,73104.8,-4.69,-5.89,-5.85,0,*5A
1486054874.22,57484,8.81,73106.8,-4.69,-5.89,-5.85,0,*5D
1486054875.46,57485,8.88,73102.0,-4.71,-5.89,-5.85,0,*55
1486054876.71,57486,8.81,73100.3,-4.69,-5.97,-5.85,0,*50
1486054877.98,57487,8.81,73098.5,-4.69,-5.89,-5.85,0,*5E
1486054879.25,57488,8.88,73102.0,-4.69,-5.89,-5.77,0,*5C
1486054880.52,57489,8.81,73102.5,-4.69,-5.85,-5.73,0,*55
1486054881.78,57490,8.81,73106.0,-4.69,-5.85,-5.73,0,*5D
1486054883.06,57491,8.88,73106.8,-4.69,-5.85,-5.85,0,*55
1486054884.34,57492,8.81,73106.0,-4.67,-5.89,-5.85,0,*54
1486054885.58,57493,8.88,73114.0,-4.71,-5.93,-5.81,0,*5D
1486054886.86,57494,8.81,73114.3,-4.69,-5.85,-5.85,0,*50
1486054888.1,57495,8.81,73110.0,-4.71,-5.89,-5.89,0,*58
1486054889.38,57496,8.81,73104.8,-4.69,-5.85,-5.85,0,*52
1486054890.62,57497,8.81,73102.0,-4.71,-5.89,-5.89,0,*5A
1486054891.9,57498,8.81,73102.5,-4.69,-5.85,-5.89,0,*50
1486054893.14,57499,8.81,73112.8,-4.71,-5.93,-5.93,0,*54
1486054894.39,57500,8.81,73112.3,-4.69,-5.97,-5.89,0,*53
1486054895.63,57501,8.81,73106.5,-4.69,-5.89,-6.01,0,*5E
1486054896.84,57502,8.81,73108.5,-4.69,-6.01,-6.01,0,*5E
1486054898.09,57503,8.81,73106.8,-4.69,-6.01,-5.89,0,*5C
1486054899.33,57504,8.81,73102.5,-4.69,-5.97,-5.85,0,*5B
1486054900.58,57505,8.81,73102.3,-4.69,-5.97,-5.85,0,*5A
1486054901.8,57506,8.81,73098.8,-4.71,-5.97,-5.89,0,*5C
1486054903.01,57507,8.81,73092.8,-4.71,-6.05,-5.93,0,*5E
1486054904.26,57508,8.81,73096.5,-4.69,-5.97,-5.89,0,*5B
1486054905.49,57509,8.81,73090.0,-4.69,-5.89,-5.97,0,*5A
1486054906.71,57510,8.81,73094.3,-4.71,-5.97,-5.89,0,*5B
1486054907.93,57511,8.81,73090.0,-4.71,-6.01,-5.93,0,*5D
1486054909.18,57512,8.81,73084.8,-4.69,-5.97,-5.85,0,*5C
1486054910.42,57513,8.81,73088.5,-4.71,-5.93,-5.93,0,*57
1486054911.69,57514,8.88,73094.8,-4.69,-5.89,-5.77,0,*58
1486054912.96,57515,8.81,73092.5,-4.69,-5.89,-5.85,0,*54
1486054914.23,57516,8.81,73096.5,-4.69,-5.85,-5.85,0,*5B
1486054915.51,57517,8.81,73098.5,-4.69,-5.89,-5.85,0,*56
1486054916.78,57518,8.88,73098.3,-4.69,-5.85,-5.77,0,*58
1486054918.05,57519,8.81,73094.8,-4.69,-5.85,-5.85,0,*54
1486054919.32,57520,8.81,73094.5,-4.69,-5.85,-5.89,0,*52
1486054920.6,57521,8.81,73094.8,-4.69,-5.85,-5.89,0,*53
1486054921.87,57522,8.81,73094.5,-4.69,-5.85,-5.77,0,*51
1486054923.14,57523,8.88,73096.3,-4.69,-5.77,-5.85,0,*50
1486054924.41,57524,8.81,73092.5,-4.69,-5.77,-5.85,0,*57
1486054925.69,57525,8.81,73092.0,-4.67,-5.85,-5.85,0,*55
1486054926.94,57526,8.81,73094.0,-4.71,-5.89,-5.89,0,*51
1486054928.18,57527,8.81,73094.5,-4.71,-5.77,-5.81,0,*59
1486054929.42,57528,8.81,73092.8,-4.71,-5.81,-5.77,0,*56
1486054930.65,57529,8.81,73094.8,-4.71,-5.69,-5.77,0,*51
1486054931.92,57530,8.81,73094.8,-4.69,-5.73,-5.61,0,*5C
1486054933.18,57531,8.81,73096.5,-4.69,-5.73,-5.73,0,*5E
1486054934.45,57532,8.81,73098.0,-4.67,-5.65,-5.65,0,*53
1486054935.72,57533,8.81,73096.5,-4.67,-5.65,-5.65,0,*52
1486054936.99,57534,8.81,73094.0,-4.67,-5.73,-5.61,0,*56
1486054938.26,57535,8.81,73094.5,-4.67,-5.73,-5.65,0,*53
1486054939.51,57536,8.81,73092.5,-4.65,-5.69,-5.61,0,*5D
1486054940.79,57537,8.88,73094.5,-4.67,-5.65,-5.61,0,*52
1486054942.05,57538,8.81,73092.3,-4.67,-5.73,-5.65,0,*5E
1486054943.32,57539,8.81,73092.0,-4.67,-5.77,-5.65,0,*5B
1486054944.59,57540,8.81,73092.3,-4.67,-5.73,-5.65,0,*51
1486054945.86,57541,8.88,73098.0,-4.67,-5.65,-5.65,0,*57
1486054947.13,57542,8.81,73090.8,-4.67,-5.73,-5.65,0,*53
1486054948.4,57543,8.81,73094.5,-4.67,-5.77,-5.73,0,*51
1486054949.66,57544,8.81,73098.0,-4.67,-5.73,-5.73,0,*52
1486054950.93,57545,8.81,73100.5,-4.67,-5.77,-5.73,0,*57
1486054952.2,57546,8.88,73106.3,-4.67,-5.77,-5.77,0,*50
1486054953.46,57547,8.81,73100.8,-4.67,-5.73,-5.77,0,*55
1486054954.73,57548,8.81,73102.5,-4.69,-5.89,-5.89,0,*50
1486054956.01,57549,8.88,73098.3,-4.67,-5.85,-5.85,0,*5F
1486054957.28,57550,8.81,73094.3,-4.67,-5.77,-5.77,0,*57
1486054958.56,57551,8.81,73088.5,-4.67,-5.85,-5.77,0,*5B
1486054959.8,57552,8.81,73090.8,-4.65,-5.81,-5.73,0,*5A
1486054961.07,57553,8.81,73088.5,-4.67,-5.77,-5.77,0,*54
1486054962.34,57554,8.81,73092.3,-4.67,-5.85,-5.77,0,*5E
1486054963.59,57555,8.81,73098.3,-4.65,-5.85,-5.81,0,*54
1486054964.87,57556,8.81,73100.3,-4.67,-5.85,-5.85,0,*51
1486054966.12,57557,8.81,73106.3,-4.67,-5.97,-5.89,0,*5F
1486054967.37,57558,8.81,73112.8,-4.67,-5.97,-5.85,0,*5C
1486054968.62,57559,8.81,73118.5,-4.67,-5.97,-5.89,0,*51
1486054969.87,57560,8.81,73110.8,-4.67,-5.97,-5.85,0,*57
1486054971.12,57561,8.81,73110.5,-4.67,-6.01,-5.77,0,*57
1486054972.34,57562,8.81,73114.3,-4.67,-6.09,-5.97,0,*52
1486054973.56,57563,8.81,73112.0,-4.67,-6.01,-5.97,0,*5B
1486054974.78,57564,8.88,73112.0,-4.67,-6.13,-5.97,0,*5F
1486054976.0,57565,8.81,73110.8,-4.67,-6.09,-5.97,0,*55
1486054977.22,57566,8.81,73114.3,-4.65,-6.05,-5.93,0,*5C
1486054978.44,57567,8.81,73116.0,-4.67,-6.13,-6.09,0,*58
1486054979.7,57568,8.81,73112.8,-4.67,-6.23,-6.23,0,*5C
1486054980.97,57569,8.81,73120.8,-4.67,-6.23,-6.23,0,*5D
1486054982.24,57570,8.81,73110.3,-4.67,-6.23,-6.27,0,*51
1486054983.44,57571,8.81,73094.0,-4.65,-6.31,-6.31,0,*56
1486054984.66,57572,8.81,73096.0,-4.67,-6.35,-6.39,0,*5B
1486054985.88,57573,8.81,73096.8,-4.67,-6.39,-6.39,0,*56
1486054987.11,57574,8.81,73102.8,-4.65,-6.23,-6.23,0,*53
1486054988.38,57575,8.81,73102.3,-4.67,-6.27,-6.27,0,*50
1486054989.61,57576,8.88,73104.0,-4.67,-6.35,-6.35,0,*53
1486054990.85,57577,8.81,73106.8,-4.67,-6.27,-6.39,0,*5D
1486054992.04,57578,8.81,73108.5,-4.65,-6.39,-6.35,0,*53
1486054993.27,57579,8.81,73106.3,-4.67,-6.51,-6.51,0,*5C
1486054994.49,57580,8.81,73102.5,-4.65,-6.73,-6.63,0,*59
1486054995.74,57581,8.81,73106.0,-4.67,-6.77,-6.63,0,*5E
1486054996.99,57582,8.81,73108.5,-4.67,-6.93,-6.81,0,*5B
1486054998.22,57583,8.81,73104.0,-4.65,-7.01,-6.81,0,*52
1486054999.46,57584,8.81,73094.5,-4.67,-7.05,-6.89,0,*5B
1486055000.71,57585,8.81,73090.8,-4.67,-7.15,-7.01,0,*5A
1486055001.97,57586,8.81,73090.8,-4.67,-7.43,-7.05,0,*5E
1486055003.22,57587,8.81,73104.3,-4.67,-7.69,-7.15,0,*56
1486055004.44,57588,8.88,73114.3,-4.65,-7.77,-7.19,0,*58
1486055005.71,57589,8.81,73094.5,-4.67,-8.11,-7.35,0,*5A
1486055006.94,57590,8.81,73088.5,-4.67,-8.17,-7.19,0,*5A
1486055008.18,57591,8.81,73094.8,-4.67,-7.95,-7.19,0,*5E
1486055009.4,57592,8.81,73086.0,-4.69,-7.87,-7.19,0,*50
1486055010.62,57593,8.81,73094.5,-4.69,-7.87,-7.23,0,*58
1486055011.87,57594,8.81,73086.0,-4.69,-8.37,-7.61,0,*5D
1486055013.12,57595,8.81,73092.0,-4.69,-8.93,-7.61,0,*52
1486055014.36,57596,8.81,73094.8,-4.69,-8.97,-7.69,0,*5D
1486055015.6,57597,8.81,73094.3,-4.69,-9.19,-7.69,0,*5B
1486055016.82,57598,8.81,73098.8,-4.69,-9.31,-7.83,0,*5A
1486055018.06,57599,8.81,73090.3,-4.69,-9.23,-7.69,0,*5C
1486055019.3,57600,8.81,73090.8,-4.69,-9.31,-7.69,0,*5C
1486055020.54,57601,8.81,73090.5,-4.69,-9.23,-7.57,0,*53
1486055021.76,57602,8.81,73080.0,-4.69,-8.97,-7.49,0,*51
1486055023.02,57603,8.81,73084.0,-4.69,-8.81,-7.31,0,*58
1486055024.24,57604,8.88,73084.8,-4.69,-8.29,-7.15,0,*5B
1486055025.5,57605,8.81,73080.0,-4.69,-8.11,-7.05,0,*50
1486055026.72,57606,8.81,73084.0,-4.69,-8.17,-7.15,0,*54
1486055027.94,57607,8.81,73092.5,-4.69,-8.29,-7.15,0,*58
1486055029.16,57608,8.81,73090.5,-4.69,-8.37,-7.15,0,*58
1486055030.35,57609,8.81,73092.8,-4.71,-8.45,-7.19,0,*59
1486055031.57,57610,8.81,73088.8,-4.69,-8.55,-7.19,0,*59
1486055032.76,57611,8.81,73086.5,-4.71,-8.41,-7.15,0,*58
1486055033.96,57612,8.81,73086.5,-4.71,-8.45,-7.11,0,*5B
1486055035.17,57613,8.81,73080.0,-4.71,-8.45,-7.05,0,*5F
1486055036.38,57614,8.81,73078.5,-4.71,-8.45,-6.93,0,*56
1486055037.57,57615,8.81,73074.8,-4.71,-8.25,-6.69,0,*54
1486055038.78,57616,8.81,73088.0,-4.71,-8.17,-6.63,0,*5C
1486055040.0,57617,8.81,73086.3,-4.69,-7.87,-6.51,0,*53
1486055041.22,57618,8.81,73098.0,-4.71,-7.77,-6.31,0,*5C
1486055042.41,57619,8.81,73094.3,-4.71,-7.53,-6.31,0,*5B
1486055043.63,57620,8.81,73082.5,-4.71,-7.23,-6.27,0,*51
1486055044.86,57621,8.81,73078.3,-4.69,-7.05,-6.13,0,*5A
1486055046.13,57622,8.81,73088.3,-4.69,-7.01,-6.19,0,*57
1486055047.35,57623,8.81,73078.5,-4.71,-6.93,-6.05,0,*58
1486055048.58,57624,8.81,73082.3,-4.69,-6.63,-6.01,0,*5D
1486055049.8,57625,8.81,73084.3,-4.69,-6.51,-6.01,0,*5D
1486055050.99,57626,8.81,73098.5,-4.71,-6.43,-6.01,0,*54
1486055052.17,57627,8.81,73102.0,-4.71,-6.31,-6.01,0,*50
1486055053.44,57628,8.81,73100.3,-4.69,-6.27,-5.89,0,*52
1486055054.68,57629,8.81,73106.0,-4.71,-6.27,-5.93,0,*51
1486055055.93,57630,8.88,73096.0,-4.69,-6.09,-5.85,0,*5B
1486055057.14,57631,8.81,73104.3,-4.71,-6.05,-5.89,0,*53
1486055058.36,57632,8.81,73094.5,-4.71,-6.05,-5.89,0,*50
1486055059.61,57633,8.81,73092.3,-4.69,-6.01,-5.85,0,*50
1486055060.84,57634,8.81,73092.5,-4.69,-6.05,-5.93,0,*54
1486055062.09,57635,8.81,73084.5,-4.69,-6.09,-5.89,0,*52
1486055063.34,57636,8.81,73078.5,-4.69,-5.97,-5.85,0,*59
1486055064.56,57637,8.81,73086.0,-4.71,-6.01,-5.89,0,*51
1486055065.77,57638,8.81,73088.8,-4.71,-6.05,-5.77,0,*5B
1486055067.01,57639,8.81,73088.8,-4.71,-5.93,-5.81,0,*5F
1486055068.26,57640,8.81,73084.3,-4.69,-5.97,-5.85,0,*58
1486055069.5,57641,8.81,73078.5,-4.71,-5.93,-5.81,0,*50
1486055070.75,57642,8.81,73090.8,-4.71,-5.89,-5.89,0,*50
1486055072.03,57643,8.81,73092.8,-4.67,-5.85,-5.85,0,*56
1486055073.31,57644,8.81,73096.0,-4.67,-5.77,-5.85,0,*5C
1486055074.58,57645,8.88,73102.5,-4.69,-5.77,-5.85,0,*53
1486055075.82,57646,8.88,73094.3,-4.71,-5.89,-5.81,0,*5C
1486055077.08,57647,8.81,73088.5,-4.69,-5.77,-5.73,0,*58
1486055078.35,57648,8.81,73090.0,-4.69,-5.77,-5.65,0,*50
1486055079.61,57649,8.81,73098.3,-4.69,-5.77,-5.77,0,*52
1486055080.88,57650,8.81,73098.5,-4.69,-5.77,-5.77,0,*5A
1486055082.15,57651,8.81,73104.3,-4.69,-5.77,-5.77,0,*5B
1486055083.41,57652,8.81,73100.0,-4.69,-5.85,-5.73,0,*51
1486055084.68,57653,8.81,73094.8,-4.69,-5.85,-5.77,0,*54
1486055085.96,57654,8.81,73084.8,-4.69,-5.85,-5.85,0,*5E
1486055087.23,57655,8.81,73080.5,-4.69,-5.85,-5.85,0,*5F
1486055088.51,57656,8.81,73064.5,-4.69,-5.85,-5.85,0,*5C
1486055089.76,57657,8.81,73082.8,-4.71,-5.93,-5.89,0,*5F
1486055091.0,57658,8.81,73102.8,-4.71,-5.93,-5.93,0,*5B
1486055092.25,57659,8.81,73106.0,-4.71,-5.93,-5.93,0,*5A
1486055093.52,57660,8.81,73114.5,-4.69,-5.77,-5.85,0,*54
1486055094.79,57661,8.81,73112.0,-4.67,-5.85,-5.77,0,*5B
1486055096.06,57662,8.81,73110.5,-4.69,-5.85,-5.77,0,*56
1486055097.34,57663,8.81,73114.8,-4.69,-5.85,-5.85,0,*5A
1486055098.61,57664,8.81,73120.8,-4.69,-5.85,-5.77,0,*50
1486055099.87,57665,8.81,73116.8,-4.67,-5.77,-5.77,0,*52
1486055101.14,57666,8.81,73112.5,-4.67,-5.77,-5.73,0,*55
1486055102.41,57667,8.81,73118.0,-4.69,-5.77,-5.73,0,*5A
1486055103.68,57668,8.81,73108.8,-4.69,-5.85,-5.85,0,*51
1486055104.96,57669,8.81,73102.5,-4.67,-5.85,-5.73,0,*57
1486055106.22,57670,8.81,73092.8,-4.69,-5.77,-5.73,0,*5C
1486055107.49,57671,8.81,73084.3,-4.69,-5.85,-5.73,0,*50
1486055108.76,57672,8.81,73084.5,-4.69,-5.77,-5.65,0,*59
1486055110.02,57673,8.81,73086.3,-4.69,-5.77,-5.73,0,*5F
1486055111.28,57674,8.81,73080.8,-4.69,-5.77,-5.73,0,*58
1486055112.55,57675,8.81,73086.8,-4.69,-5.77,-5.73,0,*59
1486055113.82,57676,8.81,73080.8,-4.67,-5.85,-5.73,0,*59
1486055115.09,57677,8.81,73082.8,-4.69,-5.85,-5.73,0,*56
1486055116.35,57678,8.81,73080.0,-4.69,-5.77,-5.65,0,*53
1486055117.62,57679,8.81,73086.0,-4.67,-5.77,-5.77,0,*5F
1486055118.89,57680,8.81,73084.5,-4.67,-5.73,-5.73,0,*59
1486055120.15,57681,8.81,73086.3,-4.69,-5.77,-5.73,0,*52
1486055121.41,57682,8.81,73084.8,-4.69,-5.73,-5.77,0,*51
1486055122.68,57683,8.81,73084.3,-4.69,-5.85,-5.77,0,*59
1486055123.94,57684,8.81,73088.3,-4.69,-5.77,-5.73,0,*57
1486055125.21,57685,8.81,73092.8,-4.69,-5.77,-5.73,0,*56
1486055126.48,57686,8.81,73088.8,-4.67,-5.77,-5.73,0,*5B
1486055127.74,57687,8.81,73088.5,-4.69,-5.77,-5.77,0,*50
1486055129.0,57688,8.81,73088.0,-4.69,-5.77,-5.77,0,*5F
1486055130.27,57689,8.81,73088.0,-4.69,-5.85,-5.77,0,*53
1486055131.55,57690,8.81,73082.8,-4.67,-5.85,-5.85,0,*58
1486055132.82,57691,8.81,73098.3,-4.67,-5.77,-5.77,0,*59
1486055134.09,57692,8.81,73096.0,-4.67,-5.85,-5.73,0,*53
1486055135.36,57693,8.81,73094.3,-4.67,-5.73,-5.77,0,*5F
1486055136.62,57694,8.81,73096.0,-4.67,-5.73,-5.73,0,*5C
1486055137.88,57695,8.81,73094.8,-4.67,-5.73,-5.73,0,*5D
1486055139.15,57696,8.81,73106.0,-4.67,-5.77,-5.73,0,*5A
1486055140.4,57697,8.81,73104.5,-4.65,-5.61,-5.69,0,*55
1486055141.66,57698,8.81,73104.3,-4.67,-5.77,-5.73,0,*54
1486055142.93,57699,8.81,73102.3,-4.67,-5.77,-5.77,0,*51
1486055144.18,57700,8.81,73104.3,-4.65,-5.69,-5.73,0,*59
1486055145.45,57701,8.81,73102.8,-4.67,-5.77,-5.73,0,*55
1486055146.71,57702,8.81,73104.8,-4.67,-5.77,-5.73,0,*56
1486055147.99,57703,8.81,73106.5,-4.67,-5.85,-5.73,0,*5A
1486055149.26,57704,8.81,73110.8,-4.67,-5.77,-5.85,0,*59
1486055150.54,57705,8.81,73110.5,-4.67,-5.85,-5.77,0,*58
1486055151.81,57706,8.81,73106.8,-4.67,-5.77,-5.77,0,*56
1486055153.07,57707,8.81,73104.5,-4.67,-5.77,-5.73,0,*53
1486055154.34,57708,8.81,73098.0,-4.67,-5.77,-5.73,0,*5C
1486055155.61,57709,8.81,73092.0,-4.67,-5.77,-5.65,0,*5A
1486055156.88,57710,8.81,73094.5,-4.67,-5.73,-5.73,0,*51
1486055158.15,57711,8.81,73086.8,-4.67,-5.77,-5.77,0,*50
1486055159.42,57712,8.81,73088.8,-4.67,-5.77,-5.85,0,*5E
1486055160.7,57713,8.81,73090.0,-4.67,-5.85,-5.77,0,*5F
1486055161.96,57714,8.81,73086.8,-4.67,-5.77,-5.77,0,*55
1486055163.23,57715,8.81,73086.3,-4.67,-5.77,-5.73,0,*50
1486055164.51,57716,8.81,73086.8,-4.67,-5.85,-5.77,0,*5A
1486055165.78,57717,8.81,73086.0,-4.67,-5.85,-5.77,0,*5B
1486055167.05,57718,8.81,73086.8,-4.67,-5.85,-5.77,0,*54
1486055168.32,57719,8.81,73086.5,-4.67,-5.77,-5.77,0,*58
1486055169.6,57720,8.81,73084.3,-4.67,-5.85,-5.65,0,*5C
1486055170.86,57721,8.81,73088.5,-4.67,-5.73,-5.73,0,*53
1486055172.14,57722,8.81,73088.3,-4.67,-5.65,-5.61,0,*54
1486055173.4,57723,8.81,73090.0,-4.67,-5.73,-5.73,0,*51
1486055174.67,57724,8.81,73088.5,-4.67,-5.77,-5.73,0,*52
1486055175.95,57725,8.81,73088.5,-4.67,-5.85,-5.65,0,*59
1486055177.22,57726,8.81,73088.0,-4.67,-5.77,-5.65,0,*57
1486055178.46,57727,8.81,73094.0,-4.65,-5.73,-5.81,0,*5A
1486055179.73,57728,8.81,73090.5,-4.67,-5.77,-5.85,0,*57
1486055181.01,57729,8.81,73088.3,-4.67,-5.77,-5.65,0,*58
1486055182.28,57730,8.81,73090.3,-4.67,-5.85,-5.73,0,*5A
1486055183.55,57731,8.81,73092.8,-4.67,-5.77,-5.73,0,*56
1486055184.82,57732,8.81,73090.0,-4.67,-5.65,-5.65,0,*51
1486055186.09,57733,8.81,73088.8,-4.67,-5.65,-5.73,0,*57
1486055187.36,57734,8.81,73090.3,-4.67,-5.65,-5.65,0,*57
1486055188.62,57735,8.81,73086.0,-4.67,-5.73,-5.73,0,*56
1486055189.89,57736,8.81,73084.8,-4.67,-5.73,-5.73,0,*55
1486055191.13,57737,8.81,73086.0,-4.65,-5.69,-5.69,0,*56
1486055192.38,57738,8.81,73082.5,-4.65,-5.73,-5.61,0,*5A
1486055193.63,57739,8.81,73080.3,-4.65,-5.69,-5.61,0,*50
1486055194.9,57740,8.81,73082.8,-4.67,-5.73,-5.65,0,*53
1486055196.17,57741,8.81,73084.5,-4.67,-5.65,-5.65,0,*55
1486055197.39,57742,8.81,73082.3,-4.65,-5.61,-5.55,0,*53
1486055198.66,57743,8.81,73086.0,-4.67,-5.65,-5.65,0,*57
1486055199.92,57744,8.81,73080.5,-4.65,-5.69,-5.61,0,*5A
1486055201.16,57745,8.81,73082.5,-4.65,-5.65,-5.65,0,*53
1486055202.41,57746,8.81,73076.8,-4.65,-5.61,-5.61,0,*50
1486055203.66,57747,8.81,73072.3,-4.65,-5.69,-5.69,0,*51
1486055204.92,57748,8.81,73068.8,-4.67,-5.73,-5.73,0,*5C
1486055206.19,57749,8.81,73072.8,-4.67,-5.73,-5.65,0,*5A
1486055207.43,57750,8.81,73076.0,-4.65,-5.61,-5.61,0,*57
1486055208.68,57751,8.81,73072.3,-4.65,-5.61,-5.61,0,*56
1486055209.93,57752,8.81,73076.5,-4.65,-5.61,-5.69,0,*5D
1486055211.19,57753,8.81,73082.5,-4.67,-5.73,-5.73,0,*56
1486055212.46,57754,8.81,73076.0,-4.67,-5.65,-5.61,0,*55
1486055213.69,57755,8.81,73084.3,-4.65,-5.61,-5.55,0,*55
1486055214.95,57756,8.81,73084.8,-4.67,-5.73,-5.73,0,*53
1486055216.2,57757,8.81,73086.0,-4.65,-5.77,-5.81,0,*59
1486055217.45,57758,8.81,73088.0,-4.65,-5.85,-5.85,0,*5F
1486055218.73,57759,8.81,73094.5,-4.67,-5.85,-5.89,0,*50
1486055219.99,57760,8.81,73112.5,-4.65,-5.85,-5.85,0,*54
1486055221.24,57761,8.81,73108.8,-4.65,-5.85,-5.85,0,*55
1486055222.52,57762,8.81,73102.0,-4.67,-5.85,-5.85,0,*54
1486055223.77,57763,8.81,73096.0,-4.67,-5.97,-5.89,0,*5A
1486055225.02,57764,8.81,73092.8,-4.65,-5.85,-5.73,0,*59
1486055226.26,57765,8.81,73082.5,-4.67,-5.97,-5.77,0,*5D
1486055227.51,57766,8.81,73082.3,-4.67,-5.97,-5.89,0,*5F
1486055228.79,57767,8.81,73078.5,-4.67,-5.89,-5.89,0,*51
1486055230.04,57768,8.81,73078.0,-4.67,-5.97,-5.89,0,*51
1486055231.29,57769,8.81,73094.3,-4.65,-5.93,-5.93,0,*5D
1486055232.54,57770,8.81,73090.5,-4.67,-5.97,-5.89,0,*58
1486055233.79,57771,8.81,73092.8,-4.67,-5.97,-5.89,0,*59
1486055235.03,57772,8.81,73094.5,-4.67,-5.89,-5.97,0,*5A
1486055236.31,57773,8.81,73094.5,-4.67,-5.89,-5.85,0,*58
1486055237.59,57774,8.81,73096.3,-4.67,-5.89,-5.85,0,*5F
1486055238.86,57775,8.81,73090.0,-4.67,-5.89,-5.89,0,*52
1486055240.11,57776,8.81,73092.0,-4.67,-5.97,-5.89,0,*5E
1486055241.36,57777,8.81,73098.0,-4.67,-5.97,-5.85,0,*53
1486055242.64,57778,8.81,73102.8,-4.67,-5.89,-5.85,0,*53
1486055243.91,57779,8.81,73100.5,-4.67,-5.89,-5.85,0,*52
1486055245.17,57780,8.81,73094.3,-4.67,-5.97,-5.89,0,*57
1486055246.44,57781,8.81,73104.0,-4.67,-5.89,-5.85,0,*55
1486055247.69,57782,8.81,73110.3,-4.65,-5.93,-5.81,0,*5B
1486055248.92,57783,8.81,73098.3,-4.65,-5.97,-5.89,0,*56
1486055250.19,57784,8.81,73100.3,-4.67,-5.89,-5.89,0,*5C
1486055251.44,57785,8.81,73110.0,-4.65,-5.81,-5.81,0,*5F
1486055252.69,57786,8.81,73108.8,-4.65,-5.85,-5.73,0,*55
1486055253.96,57787,8.81,73104.3,-4.67,-5.89,-5.85,0,*53
1486055255.23,57788,8.81,73102.5,-4.67,-5.89,-5.77,0,*51
1486055256.48,57789,8.81,73106.5,-4.65,-5.85,-5.81,0,*57
1486055257.76,57790,8.81,73108.3,-4.67,-5.89,-5.85,0,*55
1486055259.01,57791,8.81,73106.0,-4.65,-5.81,-5.81,0,*5A
1486055260.28,57792,8.81,73108.3,-4.67,-5.77,-5.85,0,*56
1486055261.56,57793,8.81,73110.3,-4.67,-5.85,-5.85,0,*5A
1486055262.81,57794,8.81,73108.8,-4.65,-5.81,-5.73,0,*52
1486055264.09,57795,8.81,73106.3,-4.67,-5.85,-5.85,0,*5C
1486055265.36,57796,8.81,73096.8,-4.67,-5.77,-5.77,0,*5F
1486055266.63,57797,8.81,73088.3,-4.69,-5.85,-5.85,0,*50
1486055267.91,57798,8.81,73080.3,-4.67,-5.89,-5.85,0,*5D
1486055269.19,57799,8.81,73084.8,-4.67,-5.85,-5.85,0,*50
1486055270.44,57800,8.81,73082.8,-4.65,-5.85,-5.81,0,*59
1486055271.69,57801,8.81,73084.8,-4.67,-5.97,-5.89,0,*51
1486055272.95,57802,8.81,73094.3,-4.65,-5.85,-5.85,0,*5F
1486055274.2,57803,8.81,73098.3,-4.67,-5.97,-5.85,0,*5F
1486055275.47,57804,8.81,73102.5,-4.67,-5.89,-5.85,0,*57
1486055276.75,57805,8.81,73098.5,-4.67,-5.85,-5.77,0,*57
1486055278.0,57806,8.81,73100.0,-4.65,-5.85,-5.81,0,*5F
1486055279.24,57807,8.81,73100.8,-4.67,-5.89,-5.97,0,*57
1486055280.52,57808,8.81,73094.5,-4.67,-5.89,-5.89,0,*57
1486055281.77,57809,8.81,73096.5,-4.65,-5.85,-5.85,0,*54
1486055282.99,57810,8.81,73088.3,-4.67,-5.97,-5.97,0,*5E
1486055284.21,57811,8.81,73086.5,-4.67,-5.97,-6.09,0,*5B
1486055285.43,57812,8.81,73092.5,-4.67,-5.97,-6.09,0,*58
1486055286.64,57813,8.81,73104.8,-4.67,-6.01,-6.09,0,*55
1486055287.87,57814,8.81,73108.0,-4.67,-6.09,-6.09,0,*5A
1486055289.08,57815,8.81,73096.3,-4.67,-6.13,-6.09,0,*50
1486055290.3,57816,8.81,73098.0,-4.67,-6.13,-6.13,0,*58
1486055291.55,57817,8.81,73092.0,-4.67,-6.23,-6.13,0,*5A
1486055292.79,57818,8.81,73094.5,-4.67,-6.27,-6.13,0,*51
1486055294.02,57819,8.81,73092.8,-4.67,-6.27,-6.09,0,*5B
1486055295.27,57820,8.81,73094.3,-4.67,-6.23,-6.01,0,*5D
1486055296.51,57821,8.81,73092.3,-4.67,-6.23,-5.97,0,*50
1486055297.76,57822,8.81,73096.3,-4.67,-6.13,-5.89,0,*5F
1486055298.98,57823,8.81,73098.3,-4.67,-6.09,-5.97,0,*5A
1486055300.23,57824,8.81,73100.5,-4.69,-6.01,-5.85,0,*58
1486055301.47,57825,8.81,73096.8,-4.67,-6.01,-5.77,0,*5A
1486055302.72,57826,8.81,73100.3,-4.67,-5.97,-5.85,0,*58
1486055303.99,57827,8.81,73102.0,-4.67,-5.89,-5.77,0,*5B
1486055305.24,57828,8.81,73098.3,-4.65,-5.85,-5.73,0,*5E
1486055306.51,57829,8.81,73100.0,-4.67,-5.89,-5.85,0,*58
1486055307.79,57830,8.81,73102.5,-4.67,-5.77,-5.65,0,*5F
1486055309.06,57831,8.81,73100.5,-4.67,-5.85,-5.73,0,*54
1486055310.33,57832,8.81,73100.8,-4.67,-5.77,-5.65,0,*5D
1486055311.58,57833,8.81,73098.8,-4.65,-5.77,-5.69,0,*52
1486055312.84,57834,8.81,73098.3,-4.67,-5.73,-5.73,0,*58
1486055314.12,57835,8.81,73098.8,-4.67,-5.85,-5.85,0,*59
1486055315.39,57836,8.81,73100.8,-4.67,-5.73,-5.65,0,*5D
1486055316.65,57837,8.81,73104.3,-4.67,-5.73,-5.73,0,*5B
1486055317.91,57838,8.81,73104.8,-4.67,-5.73,-5.73,0,*54
1486055319.15,57839,8.81,73104.8,-4.65,-5.73,-5.65,0,*50
1486055320.4,57840,8.81,73104.8,-4.65,-5.69,-5.69,0,*59
1486055321.67,57841,8.81,73100.5,-4.67,-5.77,-5.73,0,*5E
1486055322.92,57842,8.81,73098.8,-4.65,-5.69,-5.61,0,*53
1486055324.17,57843,8.81,73100.8,-4.65,-5.69,-5.61,0,*52
1486055325.44,57844,8.81,73094.8,-4.67,-5.77,-5.77,0,*5F